| time (UTC) | temp F | wind direction | speed knots | gust knots | rain 1hr in | rain 24hr in | rain mn in | humidity % | barometer mb |
| 20260906212838 | 78 | 57 | 18.2 | 26.9 | 0.00 | 0.00 | 0.00 | 72 | 1012.9 |
| 20260906211845 | 78 | 71 | 20.0 | 29.5 | 0.00 | 0.00 | 0.00 | 73 | 1012.9 |
| 20260906204555 | 80 | 74 | 16.5 | 22.6 | 0.00 | 0.00 | 0.00 | 70 | 1012.9 |
| 20260906203556 | 80 | 49 | 14.8 | 23.5 | 0.00 | 0.00 | 0.00 | 70 | 1012.7 |
| 20260906202538 | 80 | 43 | 14.8 | 23.5 | 0.00 | 0.00 | 0.00 | 69 | 1012.6 |
| 20260906201540 | 80 | 51 | 13.0 | 20.0 | 0.00 | 0.00 | 0.00 | 70 | 1012.6 |
| 20260906200543 | 79 | 37 | 13.9 | 19.1 | 0.00 | 0.00 | 0.00 | 71 | 1012.6 |
| 20260906195557 | 79 | 40 | 11.3 | 18.2 | 0.00 | 0.00 | 0.00 | 72 | 1012.6 |
| 20260906194553 | 79 | 34 | 12.2 | 19.1 | 0.00 | 0.00 | 0.00 | 70 | 1012.8 |
| 20260906193521 | 79 | 37 | 13.0 | 19.1 | 0.00 | 0.00 | 0.00 | 71 | 1012.8 |
| 20260906192536 | 81 | 39 | 8.7 | 16.5 | 0.00 | 0.00 | 0.00 | 70 | 1012.7 |
| 20260906191557 | 81 | 52 | 9.6 | 14.8 | 0.00 | 0.00 | 0.00 | 71 | 1012.7 |
| 20260906190611 | 82 | 40 | 7.0 | 14.8 | 0.00 | 0.00 | 0.00 | 71 | 1012.9 |
| 20260906185604 | 82 | 83 | 5.2 | 10.4 | 0.00 | 0.00 | 0.00 | 71 | 1013.0 |
| 20260906184618 | 82 | 53 | 6.1 | 10.4 | 0.00 | 0.00 | 0.00 | 71 | 1013.2 |
| 20260906183559 | 81 | 57 | 6.1 | 11.3 | 0.00 | 0.00 | 0.00 | 72 | 1013.2 |
| 20260906182622 | 81 | 66 | 6.1 | 11.3 | 0.00 | 0.00 | 0.00 | 73 | 1013.3 |
| 20260906181645 | 81 | 92 | 5.2 | 9.6 | 0.00 | 0.00 | 0.00 | 71 | 1013.3 |
| 20260906180627 | 81 | 98 | 6.1 | 12.2 | 0.00 | 0.00 | 0.00 | 72 | 1013.3 |
| 20260906175643 | 80 | 101 | 7.8 | 12.2 | 0.00 | 0.00 | 0.00 | 75 | 1013.2 |
| 20260906174651 | 79 | 61 | 7.0 | 14.8 | 0.00 | 0.00 | 0.00 | 77 | 1013.4 |
| 20260906173647 | 77 | 123 | 10.4 | 16.5 | 0.00 | 0.00 | 0.00 | 80 | 1013.4 |
| 20260906172708 | 77 | 83 | 10.4 | 16.5 | 0.00 | 0.00 | 0.00 | 81 | 1013.3 |
| 20260906171650 | 76 | 115 | 9.6 | 15.6 | 0.00 | 0.00 | 0.00 | 83 | 1013.4 |
| 20260906170643 | 74 | 105 | 8.7 | 15.6 | 0.00 | 0.00 | 0.00 | 84 | 1013.6 |
| 20260906165630 | 73 | 106 | 9.6 | 15.6 | 0.00 | 0.00 | 0.00 | 86 | 1013.6 |
| 20260906164633 | 72 | 92 | 8.7 | 13.0 | 0.00 | 0.00 | 0.00 | 87 | 1013.8 |
| 20260906162437 | 72 | 94 | 6.1 | 12.2 | 0.00 | 0.00 | 0.00 | 89 | 1014.4 |
| 20260906161403 | 71 | 106 | 7.8 | 12.2 | 0.00 | 0.00 | 0.00 | 89 | 1014.5 |
| 20260906155241 | 71 | 90 | 7.0 | 11.3 | 0.00 | 0.00 | 0.00 | 89 | 1014.7 |
| 20260906154236 | 71 | 96 | 7.8 | 12.2 | 0.00 | 0.00 | 0.00 | 90 | 1014.7 |
| 20260906153216 | 70 | 95 | 7.0 | 13.0 | 0.00 | 0.00 | 0.00 | 90 | 1014.5 |
| 20260906152212 | 70 | 78 | 6.1 | 13.0 | 0.00 | 0.00 | 0.00 | 91 | 1014.5 |
| 20260906151202 | 70 | 103 | 7.0 | 13.0 | 0.00 | 0.00 | 0.00 | 91 | 1014.4 |
| 20260906150145 | 70 | 128 | 6.1 | 13.9 | 0.00 | 0.00 | 0.00 | 91 | 1014.6 |
| 20260906145146 | 69 | 116 | 7.8 | 13.9 | 0.00 | 0.00 | 0.00 | 92 | 1014.9 |
| 20260906144204 | 69 | 117 | 6.1 | 10.4 | 0.00 | 0.00 | 0.00 | 92 | 1015.0 |
| 20260906143156 | 69 | 78 | 5.2 | 8.7 | 0.00 | 0.00 | 0.00 | 93 | 1015.3 |
| 20260906142138 | 68 | 88 | 4.3 | 7.8 | 0.00 | 0.00 | 0.00 | 93 | 1015.3 |
| 20260906141136 | 68 | 72 | 2.6 | 7.0 | 0.00 | 0.00 | 0.00 | 94 | 1015.5 |
| 20260906140145 | 67 | 57 | 3.5 | 7.0 | 0.00 | 0.00 | 0.00 | 94 | 1015.4 |
| 20260906135139 | 67 | 55 | 4.3 | 7.0 | 0.00 | 0.00 | 0.00 | 93 | 1015.2 |
| 20260906134148 | 67 | 56 | 4.3 | 6.1 | 0.00 | 0.00 | 0.00 | 93 | 1015.1 |
| 20260906132028 | 67 | 48 | 0.0 | 0.0 | 0.00 | 0.00 | 0.00 | 94 | 1015.9 |
| 20260906125846 | 67 | 55 | 2.6 | 5.2 | 0.00 | 0.00 | 0.00 | 94 | 1015.5 |
| 20260906122524 | 67 | 106 | 6.1 | 11.3 | 0.00 | 0.00 | 0.00 | 94 | 1014.4 |
| 20260906121527 | 67 | 92 | 6.1 | 11.3 | 0.00 | 0.00 | 0.00 | 93 | 1014.2 |
| 20260906120454 | 66 | 88 | 6.1 | 11.3 | 0.00 | 0.00 | 0.00 | 93 | 1014.0 |
| 20260906115431 | 66 | 94 | 7.0 | 11.3 | 0.00 | 0.00 | 0.00 | 93 | 1014.0 |
| 20260906113225 | 66 | 81 | 5.2 | 7.8 | 0.00 | 0.00 | 0.00 | 92 | 1014.3 |
| 20260906112249 | 66 | 78 | 5.2 | 8.7 | 0.00 | 0.00 | 0.00 | 92 | 1014.5 |
| 20260906111308 | 66 | 78 | 5.2 | 9.6 | 0.00 | 0.00 | 0.00 | 92 | 1014.5 |
| 20260906110309 | 66 | 78 | 5.2 | 9.6 | 0.00 | 0.00 | 0.00 | 92 | 1014.6 |
| 20260906105316 | 66 | 76 | 6.1 | 9.6 | 0.00 | 0.00 | 0.00 | 92 | 1014.7 |
| 20260906104251 | 66 | 63 | 5.2 | 7.8 | 0.00 | 0.00 | 0.00 | 92 | 1014.6 |
| 20260906103252 | 66 | 74 | 4.3 | 7.8 | 0.00 | 0.00 | 0.00 | 92 | 1014.7 |
| 20260906102245 | 66 | 73 | 4.3 | 7.8 | 0.00 | 0.00 | 0.00 | 92 | 1014.8 |
| 20260906101214 | 67 | 72 | 4.3 | 7.0 | 0.00 | 0.00 | 0.00 | 92 | 1014.7 |
| 20260906100148 | 67 | 65 | 3.5 | 7.0 | 0.00 | 0.00 | 0.00 | 92 | 1014.9 |
| 20260906095212 | 67 | 65 | 2.6 | 5.2 | 0.00 | 0.00 | 0.00 | 92 | 1014.9 |
| 20260906094154 | 67 | 69 | 2.6 | 5.2 | 0.00 | 0.00 | 0.00 | 91 | 1015.0 |
| 20260906093157 | 68 | 71 | 3.5 | 5.2 | 0.00 | 0.00 | 0.00 | 91 | 1015.0 |
| 20260906092212 | 68 | 67 | 3.5 | 6.1 | 0.00 | 0.00 | 0.00 | 90 | 1015.0 |
| 20260906091201 | 69 | 73 | 2.6 | 7.8 | 0.00 | 0.00 | 0.00 | 90 | 1015.0 |
| 20260906090202 | 69 | 78 | 3.5 | 7.8 | 0.00 | 0.00 | 0.00 | 90 | 1015.0 |
| 20260906085157 | 69 | 72 | 3.5 | 6.1 | 0.00 | 0.00 | 0.00 | 90 | 1015.0 |
| 20260906084219 | 69 | 83 | 2.6 | 5.2 | 0.00 | 0.00 | 0.00 | 90 | 1015.1 |
| 20260906083220 | 69 | 78 | 0.9 | 3.5 | 0.00 | 0.00 | 0.00 | 90 | 1015.2 |
| 20260906082221 | 69 | 78 | 1.7 | 4.3 | 0.00 | 0.00 | 0.00 | 90 | 1015.3 |
| 20260906081242 | 69 | 77 | 1.7 | 4.3 | 0.00 | 0.00 | 0.00 | 90 | 1015.4 |
| 20260906080220 | 69 | 78 | 1.7 | 3.5 | 0.00 | 0.00 | 0.00 | 91 | 1015.6 |
| 20260906075213 | 69 | 76 | 1.7 | 3.5 | 0.00 | 0.00 | 0.00 | 92 | 1015.7 |
| 20260906074231 | 69 | 76 | 1.7 | 3.5 | 0.00 | 0.00 | 0.00 | 92 | 1015.7 |
| 20260906073206 | 68 | 76 | 1.7 | 4.3 | 0.00 | 0.00 | 0.00 | 93 | 1015.8 |
| 20260906071052 | 67 | 74 | 1.7 | 3.5 | 0.00 | 0.00 | 0.00 | 93 | 1015.8 |
| 20260906070032 | 67 | 74 | 1.7 | 3.5 | 0.00 | 0.00 | 0.00 | 92 | 1015.9 |
| 20260906065051 | 67 | 74 | 0.9 | 2.6 | 0.00 | 0.00 | 0.00 | 91 | 1015.8 |
| 20260906064110 | 67 | 74 | 1.7 | 2.6 | 0.00 | 0.00 | 0.00 | 90 | 1015.8 |
| 20260906063131 | 68 | 74 | 1.7 | 2.6 | 0.00 | 0.01 | 0.00 | 90 | 1015.9 |
| 20260906062058 | 68 | 74 | 1.7 | 5.2 | 0.00 | 0.03 | 0.00 | 90 | 1015.9 |
| 20260906061026 | 69 | 74 | 2.6 | 5.2 | 0.00 | 0.03 | 0.00 | 88 | 1015.8 |
| 20260906060022 | 69 | 75 | 3.5 | 6.1 | 0.00 | 0.03 | 0.00 | 88 | 1015.7 |
| 20260906055038 | 69 | 82 | 4.3 | 6.1 | 0.00 | 0.03 | 0.03 | 88 | 1015.7 |
| 20260906054042 | 70 | 79 | 3.5 | 6.1 | 0.00 | 0.03 | 0.03 | 88 | 1015.6 |
| 20260906053021 | 70 | 83 | 2.6 | 5.2 | 0.00 | 0.03 | 0.03 | 88 | 1015.5 |
| 20260906052044 | 70 | 83 | 2.6 | 6.1 | 0.00 | 0.03 | 0.03 | 88 | 1015.5 |
| 20260906051040 | 71 | 83 | 3.5 | 6.1 | 0.00 | 0.03 | 0.03 | 87 | 1015.5 |
| 20260906050036 | 72 | 91 | 3.5 | 6.1 | 0.00 | 0.03 | 0.03 | 86 | 1015.4 |
| 20260906045015 | 72 | 90 | 4.3 | 7.8 | 0.00 | 0.03 | 0.03 | 86 | 1015.6 |
| 20260906042921 | 73 | 80 | 3.5 | 7.0 | 0.00 | 0.03 | 0.03 | 84 | 1015.5 |
| 20260906041931 | 74 | 80 | 5.2 | 7.0 | 0.00 | 0.03 | 0.03 | 84 | 1015.5 |
| 20260906040941 | 73 | 84 | 4.3 | 7.0 | 0.00 | 0.03 | 0.03 | 85 | 1015.6 |
| 20260906035914 | 73 | 76 | 2.6 | 6.1 | 0.00 | 0.03 | 0.03 | 85 | 1015.5 |
| 20260906034936 | 73 | 71 | 2.6 | 5.2 | 0.00 | 0.03 | 0.03 | 85 | 1015.5 |
| 20260906033925 | 73 | 67 | 3.5 | 7.0 | 0.00 | 0.03 | 0.03 | 84 | 1015.4 |
| 20260906032903 | 73 | 62 | 5.2 | 7.0 | 0.00 | 0.03 | 0.03 | 84 | 1015.4 |
| 20260906030741 | 74 | 61 | 5.2 | 7.8 | 0.00 | 0.03 | 0.03 | 82 | 1015.4 |
| 20260906025732 | 74 | 59 | 6.1 | 7.8 | 0.00 | 0.03 | 0.03 | 81 | 1015.3 |
| 20260906024742 | 74 | 65 | 5.2 | 7.0 | 0.00 | 0.03 | 0.03 | 81 | 1015.4 |
| 20260906022629 | 75 | 60 | 6.1 | 9.6 | 0.00 | 0.03 | 0.03 | 81 | 1015.0 |
| 20260906021608 | 74 | 57 | 5.2 | 8.7 | 0.00 | 0.03 | 0.03 | 80 | 1014.8 |
| 20260906020547 | 75 | 57 | 4.3 | 6.1 | 0.00 | 0.03 | 0.03 | 81 | 1014.9 |
| 20260906015520 | 75 | 54 | 3.5 | 5.2 | 0.00 | 0.03 | 0.03 | 81 | 1014.7 |
| 20260906014540 | 75 | 59 | 2.6 | 5.2 | 0.00 | 0.03 | 0.03 | 80 | 1014.6 |
| 20260906013517 | 76 | 59 | 2.6 | 5.2 | 0.00 | 0.03 | 0.03 | 79 | 1014.6 |
| 20260906012513 | 76 | 63 | 2.6 | 3.5 | 0.00 | 0.03 | 0.03 | 78 | 1014.5 |
| 20260906011454 | 77 | 67 | 1.7 | 2.6 | 0.00 | 0.03 | 0.03 | 78 | 1014.4 |
| 20260906005323 | 77 | 67 | 0.9 | 1.7 | 0.00 | 0.03 | 0.03 | 76 | 1014.2 |
| 20260906004311 | 78 | 67 | 0.0 | 0.9 | 0.00 | 0.03 | 0.03 | 77 | 1014.2 |
| 20260906003241 | 78 | 67 | 0.0 | 1.7 | 0.00 | 0.03 | 0.03 | 77 | 1014.2 |
| 20260906002249 | 78 | 67 | 0.9 | 1.7 | 0.00 | 0.03 | 0.03 | 76 | 1014.1 |
| 20260905232759 | 79 | 77 | 0.0 | 0.0 | 0.00 | 0.03 | 0.03 | 73 | 1014.0 |
| 20260905231745 | 79 | 77 | 0.0 | 0.0 | 0.00 | 0.03 | 0.03 | 73 | 1014.0 |
| 20260905225543 | 79 | 77 | 0.0 | 0.0 | 0.00 | 0.03 | 0.03 | 74 | 1013.9 |
| 20260905224555 | 79 | 82 | 0.9 | 1.7 | 0.00 | 0.03 | 0.03 | 71 | 1013.7 |
| 20260905223523 | 79 | 82 | 1.7 | 1.7 | 0.00 | 0.03 | 0.03 | 69 | 1013.6 |
| 20260905221423 | 80 | 135 | 0.0 | 0.0 | 0.00 | 0.03 | 0.03 | 69 | 1013.6 |
| 20260905220357 | 80 | 135 | 0.0 | 0.0 | 0.00 | 0.03 | 0.03 | 68 | 1013.7 |
| 20260905215413 | 80 | 135 | 0.9 | 2.6 | 0.00 | 0.03 | 0.03 | 69 | 1013.7 |
| 20260905214412 | 79 | 123 | 1.7 | 5.2 | 0.00 | 0.03 | 0.03 | 68 | 1013.7 |
| 20260905213357 | 80 | 116 | 1.7 | 5.2 | 0.00 | 0.03 | 0.03 | 68 | 1013.7 |